QPF
0.01 0.01 0.01 0.01 0.01 0.01 0.01 0.01 0.02 0.02 0.01 0.01 0.01 0.01 0.01 0.01 0.01 0.01 0.01 0.01 0.01 0.01 0.01 0.01 0.02 0.01 0.01 0.00 0.00 0.00 0.00 0.01 0.00 0.01 0.01 0.01 0.01 0.01 0.01 0.02 0.02 0.03 0.03
0.00 0.00 0.01 0.01 0.01 0.01 0.01 0.01 0.01 0.01 0.01 0.00 0.00 0.01 0.01 0.01 0.00 0.00 0.01 0.01 0.01 0.01 0.01 0.01 0.01 0.01 0.01 0.01 0.00 0.00 0.00 0.00 0.00 0.00 0.01 0.01 0.01 0.01 0.02 0.01 0.02 0.02 0.01
0.00 0.00 0.00 0.01 0.01 0.01 0.01 0.01 0.01 0.01 0.01 0.00 0.00 0.01 0.01 0.01 0.01 0.01 0.01 0.01 0.01 0.01 0.00 0.01 0.01 0.01 0.01 0.01 0.01 0.00 0.00 0.00 0.00 0.00 0.01 0.01 0.01 0.01 0.01 0.01 0.01 0.01 0.01
0.00 0.00 0.00 0.01 0.00 0.00 0.01 0.01 0.01 0.01 0.01 0.01 0.00 0.01 0.01 0.01 0.01 0.01 0.01 0.02 0.02 0.01 0.01 0.01 0.00 0.00 0.00 0.00 0.01 0.00 0.00 0.00 0.00 0.00 0.01 0.01 0.01 0.01 0.01 0.01 0.01 0.01 0.01
0.00 0.00 0.01 0.00 0.01 0.01 0.00 0.01 0.01 0.01 0.02 0.01 0.01 0.01 0.01 0.01 0.01 0.01 0.01 0.01 0.02 0.02 0.02 0.01 0.00 0.00 0.00 0.00 0.00 0.00 0.00 0.00 0.00 0.00 0.01 0.01 0.01 0.01 0.01 0.00 0.01 0.01 0.02
0.00 0.00 0.01 0.01 0.01 0.01 0.01 0.01 0.01 0.01 0.02 0.02 0.02 0.01 0.01 0.01 0.01 0.01 0.01 0.01 0.01 0.01 0.00 0.00 0.00 0.00 0.00 0.00 0.00 0.00 0.00 0.00 0.00 0.01 0.02 0.02 0.02 0.01 0.01 0.01 0.02 0.02 0.02
0.01 0.01 0.01 0.01 0.01 0.01 0.01 0.01 0.02 0.02 0.02 0.02 0.01 0.01 0.01 0.01 0.01 0.01 0.00 0.01 0.01 0.00 0.00 0.00 0.00 0.00 0.00 0.00 0.00 0.00 0.00 0.01 0.01 0.02 0.03 0.03 0.02 0.02 0.02 0.02 0.03 0.02 0.02
0.01 0.01 0.01 0.02 0.02 0.03 0.03 0.03 0.03 0.03 0.03 0.02 0.02 0.01 0.01 0.01 0.01 0.01 0.01 0.00 0.00 0.00 0.00 0.00 0.00 0.00 0.00 0.00 0.00 0.00 0.00 0.00 0.01 0.02 0.03 0.03 0.02 0.02 0.02 0.01 0.02 0.02 0.01
0.02 0.02 0.01 0.02 0.02 0.03 0.03 0.03 0.04 0.03 0.03 0.03 0.03 0.02 0.02 0.01 0.01 0.01 0.00 0.00 0.00 0.00 0.00 0.00 0.00 0.00 0.00 0.00 0.00 0.00 0.00 0.00 0.01 0.01 0.02 0.02 0.01 0.01 0.01 0.01 0.01 0.01 0.01
0.02 0.03 0.02 0.02 0.02 0.02 0.03 0.03 0.02 0.02 0.03 0.03 0.03 0.03 0.02 0.02 0.01 0.01 0.01 0.00 0.00 0.00 0.00 0.00 0.00 0.00 0.00 0.00 0.00 0.00 0.00 0.00 0.01 0.01 0.01 0.01 0.00 0.01 0.01 0.01 0.02 0.01 0.01
0.02 0.03 0.03 0.02 0.02 0.03 0.03 0.02 0.02 0.02 0.03 0.03 0.02 0.02 0.02 0.02 0.03 0.03 0.01 0.00 0.00 0.00 0.00 0.00 0.00 0.00 0.00 0.00 0.00 0.00 0.00 0.01 0.01 0.00 0.01 0.00 0.00 0.01 0.01 0.01 0.01 0.02 0.02
0.01 0.02 0.02 0.02 0.02 0.02 0.02 0.03 0.03 0.02 0.02 0.02 0.02 0.02 0.03 0.03 0.02 0.02 0.00 0.00 0.00 0.00 0.00 0.00 0.00 0.00 0.00 0.00 0.00 0.00 0.00 0.00 0.00 0.00 0.00 0.00 0.00 0.00 0.01 0.01 0.01 0.01 0.01
0.01 0.01 0.01 0.02 0.03 0.02 0.02 0.02 0.03 0.02 0.02 0.02 0.03 0.04 0.03 0.02 0.02 0.02 0.02 0.01 0.00 0.00 0.00 0.00 0.00 0.00 0.00 0.00 0.00 0.00 0.00 0.00 0.00 0.00 0.00 0.00 0.00 0.01 0.01 0.01 0.01 0.01 0.01
0.01 0.01 0.01 0.03 0.03 0.03 0.02 0.01 0.02 0.01 0.01 0.01 0.03 0.03 0.02 0.02 0.02 0.02 0.02 0.02 0.02 0.01 0.01 0.00 0.00 0.00 0.00 0.00 0.00 0.00 0.00 0.00 0.00 0.00 0.00 0.00 0.00 0.00 0.01 0.01 0.00 0.00 0.00
0.01 0.01 0.02 0.03 0.04 0.04 0.03 0.02 0.01 0.01 0.02 0.02 0.02 0.02 0.02 0.01 0.02 0.02 0.02 0.02 0.01 0.01 0.01 0.00 0.00 0.00 0.00 0.00 0.00 0.00 0.00 0.00 0.00 0.00 0.00 0.00 0.00 0.00 0.00 0.00 0.00 0.00 0.00
0.01 0.01 0.02 0.03 0.04 0.04 0.03 0.03 0.02 0.02 0.02 0.03 0.02 0.02 0.01 0.01 0.01 0.01 0.01 0.01 0.01 0.01 0.01 0.01 0.00 0.00 0.00 0.00 0.00 0.00 0.00 0.00 0.00 0.00 0.00 0.00 0.00 0.00 0.00 0.00 0.00 0.00 0.00
0.01 0.02 0.02 0.03 0.04 0.04 0.03 0.03 0.03 0.03 0.03 0.03 0.02 0.02 0.01 0.01 0.01 0.01 0.01 0.01 0.01 0.01 0.01 0.01 0.01 0.00 0.00 0.00 0.00 0.00 0.00 0.00 0.00 0.00 0.00 0.00 0.00 0.00 0.00 0.00 0.00 0.00 0.00
0.01 0.02 0.02 0.03 0.03 0.04 0.04 0.04 0.04 0.04 0.04 0.04 0.02 0.02 0.01 0.01 0.01 0.01 0.00 0.00 0.01 0.01 0.01 0.01 0.01 0.00 0.00 0.00 0.00 0.00 0.00 0.00 0.00 0.00 0.00 0.00 0.00 0.00 0.00 0.00 0.00 0.00 0.00
0.01 0.01 0.01 0.02 0.03 0.03 0.04 0.04 0.04 0.04 0.04 0.04 0.03 0.02 0.02 0.01 0.01 0.01 0.01 0.01 0.00 0.01 0.01 0.01 0.02 0.01 0.01 0.00 0.00 0.00 0.00 0.00 0.00 0.00 0.00 0.00 0.00 0.00 0.00 0.00 0.00 0.00 0.00
0.01 0.01 0.01 0.01 0.02 0.02 0.03 0.03 0.03 0.02 0.02 0.03 0.03 0.02 0.01 0.01 0.01 0.02 0.01 0.02 0.01 0.01 0.01 0.01 0.02 0.03 0.04 0.03 0.02 0.01 0.00 0.00 0.00 0.00 0.00 0.00 0.00 0.00 0.00 0.00 0.00 0.00 0.00
0.01 0.01 0.01 0.01 0.01 0.01 0.01 0.01 0.02 0.01 0.01 0.01 0.02 0.01 0.01 0.01 0.01 0.01 0.01 0.01 0.01 0.01 0.01 0.01 0.01 0.02 0.03 0.05 0.05 0.03 0.01 0.00 0.00 0.00 0.00 0.00 0.00 0.00 0.00 0.00 0.00 0.00 0.00
0.01 0.01 0.01 0.00 0.00 0.00 0.01 0.01 0.01 0.01 0.02 0.02 0.01 0.01 0.01 0.01 0.01 0.01 0.01 0.01 0.01 0.01 0.01 0.01 0.01 0.01 0.01 0.01 0.02 0.03 0.02 0.01 0.01 0.00 0.00 0.00 0.00 0.00 0.00 0.00 0.00 0.00 0.00
0.01 0.01 0.01 0.00 0.00 0.00 0.00 0.00 0.01 0.01 0.01 0.01 0.01 0.01 0.01 0.02 0.02 0.02 0.01 0.01 0.01 0.01 0.01 0.01 0.01 0.01 0.01 0.01 0.01 0.01 0.02 0.02 0.01 0.01 0.00 0.00 0.00 0.00 0.00 0.00 0.00 0.00 0.00
0.00 0.00 0.00 0.00 0.00 0.00 0.00 0.00 0.00 0.00 0.01 0.01 0.01 0.01 0.01 0.01 0.01 0.01 0.01 0.01 0.01 0.01 0.01 0.01 0.01 0.01 0.01 0.01 0.01 0.01 0.01 0.01 0.01 0.01 0.01 0.01 0.00 0.00 0.01 0.01 0.00 0.00 0.00
0.01 0.00 0.00 0.00 0.00 0.00 0.00 0.00 0.00 0.00 0.00 0.00 0.01 0.01 0.01 0.01 0.01 0.01 0.01 0.01 0.00 0.00 0.00 0.00 0.00 0.00 0.00 0.01 0.01 0.00 0.00 0.01 0.01 0.01 0.01 0.01 0.01 0.00 0.00 0.00 0.00 0.00 0.00
0.01 0.01 0.00 0.00 0.00 0.00 0.01 0.01 0.01 0.01 0.01 0.01 0.01 0.01 0.01 0.00 0.01 0.00 0.00 0.00 0.00 0.00 0.00 0.00 0.00 0.00 0.00 0.00 0.00 0.00 0.00 0.00 0.00 0.00 0.00 0.00 0.00 0.00 0.00 0.00 0.00 0.00 0.00
MSLP
1019.49 1019.46 1019.33 1019.19 1019.11 1019.13 1019.23 1019.34 1019.42 1019.41 1019.30 1019.10 1018.86 1018.62 1018.44 1018.34 1018.31 1018.31 1018.32 1018.28 1018.19 1018.03 1017.83 1017.62 1017.44 1017.30 1017.21 1017.16 1017.11 1017.05 1016.96 1016.84 1016.69 1016.53 1016.37 1016.24 1016.12 1016.01 1015.88 1015.73 1015.55 1015.33 1015.11
1019.33 1019.34 1019.29 1019.25 1019.28 1019.37 1019.51 1019.64 1019.70 1019.66 1019.51 1019.29 1019.05 1018.83 1018.68 1018.62 1018.62 1018.66 1018.69 1018.66 1018.56 1018.39 1018.18 1017.96 1017.76 1017.60 1017.48 1017.39 1017.31 1017.21 1017.09 1016.93 1016.75 1016.57 1016.40 1016.26 1016.13 1016.01 1015.88 1015.71 1015.52 1015.29 1015.07
1019.26 1019.30 1019.31 1019.36 1019.47 1019.63 1019.81 1019.95 1020.00 1019.94 1019.78 1019.56 1019.33 1019.14 1019.03 1018.99 1019.01 1019.05 1019.06 1019.01 1018.89 1018.70 1018.47 1018.24 1018.02 1017.85 1017.71 1017.60 1017.48 1017.34 1017.18 1016.99 1016.79 1016.59 1016.42 1016.28 1016.16 1016.03 1015.89 1015.72 1015.51 1015.27 1015.04
1019.30 1019.35 1019.42 1019.53 1019.71 1019.93 1020.13 1020.28 1020.33 1020.26 1020.11 1019.91 1019.70 1019.55 1019.45 1019.43 1019.44 1019.45 1019.43 1019.34 1019.18 1018.96 1018.71 1018.47 1018.25 1018.07 1017.92 1017.78 1017.64 1017.48 1017.28 1017.07 1016.85 1016.66 1016.49 1016.35 1016.22 1016.09 1015.94 1015.75 1015.53 1015.27 1015.02
1019.42 1019.49 1019.60 1019.78 1020.01 1020.25 1020.48 1020.62 1020.67 1020.62 1020.48 1020.30 1020.13 1020.00 1019.92 1019.88 1019.87 1019.84 1019.76 1019.62 1019.41 1019.16 1018.90 1018.66 1018.45 1018.27 1018.13 1017.99 1017.83 1017.65 1017.43 1017.21 1016.98 1016.78 1016.61 1016.47 1016.34 1016.21 1016.04 1015.82 1015.57 1015.29 1015.00
1019.59 1019.69 1019.85 1020.07 1020.34 1020.61 1020.83 1020.97 1021.01 1020.96 1020.84 1020.69 1020.55 1020.44 1020.37 1020.32 1020.27 1020.19 1020.05 1019.85 1019.60 1019.33 1019.07 1018.83 1018.65 1018.49 1018.36 1018.22 1018.05 1017.86 1017.63 1017.39 1017.16 1016.96 1016.79 1016.65 1016.51 1016.35 1016.15 1015.91 1015.61 1015.29 1014.97
1019.79 1019.93 1020.13 1020.40 1020.69 1020.96 1021.17 1021.29 1021.33 1021.27 1021.17 1021.04 1020.93 1020.85 1020.78 1020.71 1020.62 1020.49 1020.29 1020.05 1019.77 1019.48 1019.23 1019.02 1018.86 1018.73 1018.61 1018.48 1018.31 1018.10 1017.86 1017.61 1017.37 1017.16 1016.98 1016.83 1016.67 1016.49 1016.26 1015.97 1015.63 1015.26 1014.90
1019.98 1020.17 1020.43 1020.73 1021.02 1021.28 1021.47 1021.57 1021.58 1021.52 1021.42 1021.33 1021.24 1021.18 1021.12 1021.04 1020.92 1020.75 1020.51 1020.23 1019.93 1019.65 1019.41 1019.23 1019.09 1018.99 1018.88 1018.74 1018.56 1018.33 1018.07 1017.80 1017.54 1017.32 1017.14 1016.97 1016.79 1016.58 1016.32 1015.99 1015.61 1015.21 1014.81
1020.15 1020.41 1020.72 1021.04 1021.34 1021.57 1021.73 1021.78 1021.76 1021.69 1021.61 1021.53 1021.48 1021.44 1021.39 1021.31 1021.18 1020.97 1020.71 1020.41 1020.10 1019.83 1019.61 1019.45 1019.33 1019.23 1019.12 1018.97 1018.76 1018.50 1018.21 1017.92 1017.65 1017.41 1017.21 1017.03 1016.84 1016.61 1016.32 1015.96 1015.55 1015.13 1014.71
1020.31 1020.64 1020.99 1021.33 1021.62 1021.82 1021.93 1021.95 1021.90 1021.82 1021.74 1021.69 1021.66 1021.65 1021.62 1021.55 1021.41 1021.19 1020.91 1020.60 1020.30 1020.03 1019.82 1019.67 1019.55 1019.45 1019.31 1019.13 1018.88 1018.59 1018.26 1017.94 1017.65 1017.41 1017.20 1017.01 1016.82 1016.57 1016.27 1015.90 1015.49 1015.05 1014.62
1020.48 1020.86 1021.25 1021.60 1021.87 1022.04 1022.10 1022.08 1022.00 1021.91 1021.85 1021.82 1021.82 1021.84 1021.83 1021.77 1021.63 1021.41 1021.13 1020.81 1020.51 1020.24 1020.03 1019.88 1019.75 1019.61 1019.44 1019.21 1018.92 1018.58 1018.22 1017.88 1017.57 1017.32 1017.12 1016.94 1016.74 1016.51 1016.21 1015.85 1015.44 1015.00 1014.58
1020.66 1021.09 1021.50 1021.85 1022.10 1022.23 1022.25 1022.20 1022.11 1022.02 1021.97 1021.96 1022.00 1022.04 1022.05 1022.00 1021.87 1021.64 1021.36 1021.04 1020.73 1020.46 1020.24 1020.06 1019.90 1019.73 1019.51 1019.23 1018.89 1018.51 1018.12 1017.75 1017.45 1017.20 1017.01 1016.84 1016.66 1016.45 1016.17 1015.83 1015.43 1015.01 1014.59
1020.85 1021.31 1021.73 1022.07 1022.30 1022.41 1022.40 1022.33 1022.23 1022.15 1022.12 1022.15 1022.21 1022.27 1022.30 1022.25 1022.12 1021.89 1021.60 1021.27 1020.96 1020.67 1020.43 1020.23 1020.03 1019.81 1019.54 1019.21 1018.83 1018.41 1018.00 1017.62 1017.32 1017.08 1016.91 1016.77 1016.62 1016.43 1016.18 1015.85 1015.48 1015.07 1014.66
1021.02 1021.50 1021.93 1022.26 1022.47 1022.56 1022.55 1022.48 1022.39 1022.33 1022.33 1022.38 1022.46 1022.54 1022.57 1022.53 1022.38 1022.15 1021.85 1021.52 1021.19 1020.89 1020.63 1020.39 1020.15 1019.89 1019.57 1019.20 1018.77 1018.33 1017.91 1017.53 1017.23 1017.02 1016.87 1016.75 1016.63 1016.46 1016.24 1015.93 1015.57 1015.17 1014.76
1021.16 1021.65 1022.07 1022.39 1022.60 1022.69 1022.69 1022.64 1022.58 1022.55 1022.58 1022.65 1022.75 1022.83 1022.86 1022.80 1022.65 1022.41 1022.10 1021.76 1021.42 1021.11 1020.83 1020.56 1020.29 1019.99 1019.63 1019.22 1018.77 1018.32 1017.89 1017.52 1017.23 1017.03 1016.89 1016.80 1016.69 1016.54 1016.33 1016.04 1015.68 1015.27 1014.86
1021.22 1021.71 1022.13 1022.45 1022.66 1022.77 1022.80 1022.79 1022.77 1022.79 1022.85 1022.94 1023.04 1023.11 1023.13 1023.05 1022.89 1022.64 1022.33 1021.99 1021.66 1021.34 1021.05 1020.76 1020.46 1020.13 1019.74 1019.31 1018.84 1018.38 1017.94 1017.58 1017.30 1017.10 1016.98 1016.88 1016.78 1016.63 1016.41 1016.12 1015.75 1015.33 1014.90
1021.19 1021.68 1022.10 1022.43 1022.66 1022.80 1022.88 1022.92 1022.96 1023.02 1023.10 1023.21 1023.30 1023.36 1023.36 1023.27 1023.10 1022.85 1022.55 1022.22 1021.90 1021.59 1021.29 1020.99 1020.68 1020.32 1019.91 1019.46 1018.98 1018.51 1018.07 1017.71 1017.42 1017.23 1017.09 1016.98 1016.86 1016.70 1016.46 1016.14 1015.76 1015.32 1014.85
1021.08 1021.57 1021.99 1022.34 1022.60 1022.79 1022.92 1023.02 1023.12 1023.21 1023.33 1023.44 1023.52 1023.57 1023.54 1023.44 1023.27 1023.03 1022.74 1022.44 1022.14 1021.85 1021.56 1021.26 1020.93 1020.56 1020.14 1019.67 1019.18 1018.70 1018.26 1017.89 1017.59 1017.37 1017.21 1017.07 1016.91 1016.71 1016.44 1016.09 1015.68 1015.21 1014.73
1020.91 1021.40 1021.84 1022.21 1022.51 1022.75 1022.94 1023.10 1023.24 1023.38 1023.51 1023.62 1023.69 1023.72 1023.68 1023.57 1023.40 1023.18 1022.93 1022.66 1022.39 1022.13 1021.85 1021.56 1021.22 1020.84 1020.41 1019.93 1019.43 1018.94 1018.49 1018.10 1017.79 1017.53 1017.33 1017.14 1016.93 1016.67 1016.36 1015.97 1015.52 1015.03 1014.53
1020.72 1021.23 1021.68 1022.08 1022.41 1022.70 1022.95 1023.16 1023.35 1023.52 1023.66 1023.77 1023.83 1023.83 1023.78 1023.67 1023.51 1023.32 1023.10 1022.88 1022.65 1022.41 1022.16 1021.87 1021.54 1021.15 1020.71 1020.23 1019.73 1019.23 1018.78 1018.37 1018.02 1017.73 1017.47 1017.21 1016.94 1016.62 1016.24 1015.81 1015.33 1014.82 1014.30
1020.53 1021.07 1021.55 1021.98 1022.36 1022.69 1022.98 1023.23 1023.46 1023.64 1023.79 1023.89 1023.94 1023.93 1023.87 1023.77 1023.63 1023.47 1023.29 1023.11 1022.91 1022.71 1022.47 1022.19 1021.86 1021.48 1021.04 1020.56 1020.07 1019.59 1019.13 1018.71 1018.33 1017.99 1017.67 1017.34 1016.99 1016.59 1016.15 1015.66 1015.15 1014.61 1014.08
1020.39 1020.97 1021.49 1021.94 1022.35 1022.71 1023.04 1023.32 1023.57 1023.77 1023.92 1024.01 1024.05 1024.03 1023.97 1023.88 1023.76 1023.63 1023.49 1023.34 1023.18 1023.00 1022.78 1022.51 1022.19 1021.81 1021.39 1020.94 1020.47 1020.01 1019.57 1019.15 1018.75 1018.37 1017.97 1017.57 1017.12 1016.64 1016.12 1015.57 1015.01 1014.45 1013.91
1020.28 1020.91 1021.47 1021.96 1022.40 1022.79 1023.13 1023.44 1023.70 1023.90 1024.05 1024.14 1024.17 1024.15 1024.10 1024.02 1023.93 1023.83 1023.72 1023.59 1023.45 1023.28 1023.07 1022.81 1022.50 1022.15 1021.76 1021.35 1020.93 1020.52 1020.11 1019.70 1019.29 1018.86 1018.41 1017.91 1017.37 1016.80 1016.19 1015.57 1014.95 1014.35 1013.78
1020.17 1020.88 1021.49 1022.01 1022.47 1022.88 1023.25 1023.56 1023.83 1024.04 1024.19 1024.28 1024.32 1024.31 1024.27 1024.21 1024.13 1024.05 1023.96 1023.85 1023.72 1023.55 1023.34 1023.09 1022.80 1022.48 1022.14 1021.79 1021.44 1021.09 1020.72 1020.34 1019.93 1019.47 1018.95 1018.37 1017.73 1017.05 1016.34 1015.64 1014.95 1014.31 1013.71
1020.04 1020.83 1021.49 1022.05 1022.54 1022.97 1023.34 1023.67 1023.95 1024.17 1024.33 1024.44 1024.49 1024.49 1024.47 1024.42 1024.37 1024.29 1024.21 1024.10 1023.96 1023.79 1023.58 1023.33 1023.07 1022.79 1022.50 1022.22 1021.95 1021.67 1021.37 1021.02 1020.61 1020.12 1019.54 1018.88 1018.14 1017.35 1016.54 1015.75 1015.00 1014.30 1013.66
1019.85 1020.72 1021.44 1022.04 1022.56 1023.01 1023.40 1023.75 1024.04 1024.28 1024.46 1024.59 1024.66 1024.69 1024.69 1024.66 1024.61 1024.55 1024.46 1024.34 1024.18 1023.99 1023.77 1023.53 1023.28 1023.04 1022.82 1022.61 1022.41 1022.21 1021.97 1021.66 1021.26 1020.74 1020.10 1019.36 1018.53 1017.64 1016.74 1015.87 1015.04 1014.29 1013.61
Thickness
5761 5761 5759 5758 5756 5755 5753 5752 5751 5749 5748 5746 5745 5744 5743 5742 5741 5740 5739 5738 5737 5737 5736 5735 5734 5734 5733 5732 5731 5730 5730 5729 5729 5728 5728 5727 5727 5726 5725 5724 5723 5722 5722
5763 5759 5756 5754 5753 5751 5750 5748 5747 5745 5744 5743 5742 5740 5739 5738 5737 5736 5735 5734 5734 5733 5732 5731 5731 5730 5729 5728 5727 5727 5726 5726 5725 5725 5724 5724 5723 5722 5721 5720 5719 5718 5717
5760 5755 5752 5751 5749 5748 5746 5744 5743 5741 5740 5739 5737 5736 5735 5734 5733 5732 5731 5730 5730 5729 5728 5727 5726 5726 5725 5724 5723 5723 5723 5722 5722 5721 5721 5720 5719 5718 5717 5716 5715 5714 5713
5756 5752 5749 5747 5745 5743 5742 5740 5738 5737 5736 5734 5733 5732 5731 5730 5729 5728 5727 5726 5725 5724 5723 5722 5721 5721 5720 5719 5719 5719 5719 5718 5718 5718 5717 5716 5715 5714 5713 5711 5710 5709 5708
5751 5748 5745 5743 5741 5739 5737 5736 5734 5732 5731 5730 5729 5727 5726 5725 5724 5723 5722 5721 5720 5719 5718 5718 5717 5716 5715 5715 5715 5714 5714 5714 5714 5714 5713 5712 5711 5709 5708 5707 5705 5705 5704
5746 5743 5740 5738 5736 5734 5733 5731 5729 5728 5726 5725 5724 5723 5722 5720 5719 5718 5717 5716 5715 5714 5714 5713 5712 5711 5711 5710 5710 5710 5710 5710 5709 5709 5708 5707 5706 5704 5703 5702 5700 5700 5699
5740 5738 5734 5733 5731 5729 5728 5726 5724 5723 5722 5720 5719 5718 5717 5715 5714 5713 5712 5711 5710 5710 5709 5708 5707 5707 5706 5706 5705 5705 5705 5705 5705 5704 5703 5701 5700 5699 5698 5697 5696 5695 5694
5735 5732 5729 5727 5726 5724 5722 5721 5719 5718 5717 5715 5714 5713 5711 5710 5709 5708 5707 5706 5705 5705 5704 5703 5702 5702 5701 5701 5700 5700 5700 5700 5699 5699 5697 5696 5695 5694 5693 5692 5691 5690 5689
5729 5726 5723 5721 5720 5718 5717 5715 5714 5712 5711 5710 5708 5707 5706 5705 5704 5703 5701 5701 5700 5699 5699 5698 5697 5697 5696 5695 5695 5695 5695 5694 5694 5693 5692 5690 5689 5688 5687 5686 5685 5684 5683
5721 5720 5718 5716 5714 5712 5711 5709 5708 5707 5705 5704 5703 5701 5701 5700 5698 5697 5696 5695 5694 5694 5693 5692 5692 5691 5691 5690 5690 5690 5690 5689 5689 5687 5686 5684 5683 5683 5682 5681 5679 5678 5677
5712 5713 5712 5711 5709 5707 5705 5703 5702 5701 5700 5698 5697 5696 5695 5694 5693 5692 5690 5690 5689 5688 5688 5687 5686 5686 5686 5686 5685 5685 5685 5684 5683 5681 5679 5678 5677 5676 5675 5674 5673 5672 5671
5704 5705 5706 5705 5704 5702 5700 5697 5696 5695 5694 5693 5692 5691 5690 5690 5688 5687 5685 5685 5684 5683 5682 5682 5682 5681 5681 5681 5680 5680 5679 5678 5677 5675 5672 5671 5670 5670 5669 5668 5666 5665 5664
5698 5699 5699 5699 5698 5696 5695 5692 5691 5689 5688 5688 5687 5686 5685 5684 5683 5681 5680 5679 5678 5678 5677 5677 5677 5676 5676 5675 5674 5674 5673 5672 5670 5668 5666 5664 5663 5662 5661 5660 5659 5658 5657
5692 5692 5693 5692 5691 5690 5689 5687 5685 5684 5683 5682 5681 5681 5680 5679 5678 5676 5675 5674 5673 5673 5672 5672 5671 5671 5670 5669 5668 5667 5666 5665 5663 5661 5659 5657 5656 5655 5654 5653 5652 5651 5650
5684 5685 5686 5686 5684 5683 5682 5681 5680 5679 5678 5677 5676 5675 5674 5673 5672 5671 5670 5669 5668 5667 5667 5666 5666 5665 5664 5663 5662 5661 5659 5658 5656 5654 5651 5649 5648 5647 5646 5645 5644 5643 5642
5678 5678 5679 5679 5678 5676 5675 5675 5674 5673 5672 5671 5670 5669 5668 5667 5666 5665 5664 5663 5662 5661 5661 5661 5660 5658 5657 5656 5655 5653 5652 5651 5649 5647 5644 5641 5640 5639 5637 5636 5635 5634 5633
5672 5672 5672 5672 5671 5670 5669 5668 5667 5666 5665 5664 5663 5662 5661 5661 5660 5659 5657 5656 5656 5655 5655 5654 5653 5652 5650 5649 5647 5646 5645 5643 5641 5639 5637 5634 5632 5630 5628 5627 5626 5625 5624
5666 5665 5665 5665 5664 5663 5662 5661 5660 5659 5658 5657 5656 5655 5655 5654 5653 5652 5651 5650 5649 5648 5648 5646 5645 5643 5642 5640 5639 5638 5637 5635 5634 5631 5628 5626 5623 5621 5619 5617 5616 5615 5614
5659 5658 5657 5657 5657 5656 5655 5654 5653 5652 5651 5650 5649 5648 5648 5647 5646 5645 5644 5643 5642 5641 5640 5639 5637 5635 5634 5632 5631 5630 5629 5627 5626 5623 5620 5617 5615 5612 5610 5608 5606 5605 5604
5652 5651 5650 5650 5649 5648 5647 5646 5645 5644 5643 5643 5642 5641 5641 5640 5639 5639 5637 5636 5635 5633 5632 5630 5629 5627 5626 5624 5625 5623 5621 5620 5618 5615 5612 5609 5606 5604 5601 5599 5597 5595 5593
5643 5644 5643 5642 5641 5640 5639 5638 5636 5635 5635 5634 5634 5634 5633 5633 5632 5631 5630 5629 5627 5625 5624 5622 5621 5619 5617 5616 5614 5612 5612 5611 5609 5606 5603 5600 5598 5595 5592 5590 5588 5586 5584
5635 5635 5635 5635 5634 5634 5633 5632 5631 5629 5627 5627 5627 5626 5626 5626 5625 5624 5622 5621 5620 5618 5616 5614 5612 5609 5607 5606 5602 5600 5598 5598 5599 5598 5595 5591 5588 5585 5583 5580 5578 5576 5574
5625 5627 5628 5628 5627 5626 5626 5625 5623 5621 5619 5618 5618 5618 5619 5618 5617 5616 5615 5613 5612 5610 5607 5606 5604 5601 5597 5595 5593 5589 5584 5582 5584 5587 5585 5582 5579 5575 5573 5571 5569 5566 5564
5616 5618 5620 5620 5619 5618 5618 5618 5617 5615 5613 5612 5612 5611 5611 5610 5609 5608 5607 5606 5604 5602 5600 5598 5596 5593 5590 5585 5583 5580 5576 5573 5569 5570 5573 5571 5568 5565 5563 5561 5559 5556 5554
5606 5608 5611 5612 5612 5611 5611 5610 5610 5609 5608 5607 5605 5604 5603 5602 5602 5600 5599 5598 5596 5594 5592 5590 5588 5585 5582 5578 5574 5571 5568 5565 5562 5557 5557 5559 5558 5555 5553 5551 5549 5547 5544
5596 5598 5601 5603 5604 5604 5603 5602 5602 5602 5601 5599 5598 5596 5595 5594 5593 5593 5591 5589 5588 5586 5584 5582 5579 5577 5574 5571 5567 5563 5559 5555 5551 5548 5545 5545 5545 5545 5544 5542 5540 5537 5534